Location: Ravensburg
(47.7866°N, 9.6124°E)
Time: 11:51:33
(UTC+01:00)

ESTCUBE 1 - Visible Passes

Search period start: 15 March 2026 00:00
Search period end: 25 March 2026 00:00
Orbit: 621 x 631 km, 97.7° (Epoch: 14 March)

Date Brightness Start Highest point End Pass type
(mag) Time Alt. Az. Time Alt. Az. Time Alt. Az.
15 Mar ? 19:43:26 17° ENE 19:44:01 17° ENE 19:46:51 10° NNE visible
15 Mar ? 21:20:42 49° NW 21:20:42 49° NW 21:24:09 10° NNW visible
16 Mar ? 20:02:34 24° ENE 20:02:53 25° ENE 20:06:26 10° N visible
16 Mar ? 21:39:51 34° WNW 21:39:51 34° WNW 21:43:03 10° NNW visible
17 Mar ? 20:21:43 36° ENE 20:21:48 36° ENE 20:25:49 10° N visible
17 Mar ? 21:59:00 24° WNW 21:59:00 24° WNW 22:01:47 10° NW visible
18 Mar ? 20:40:51 55° ENE 20:40:51 55° ENE 20:45:03 10° N visible
18 Mar ? 22:18:07 16° WNW 22:18:07 16° WNW 22:20:14 10° NW visible
19 Mar ? 19:22:42 10° ENE 19:24:14 12° ENE 19:25:48 10° NE visible
19 Mar ? 20:59:59 80° NNE 20:59:59 80° NNE 21:04:11 10° NNW visible
19 Mar ? 22:37:15 11° WNW 22:37:15 11° WNW 22:37:49 10° WNW visible
20 Mar ? 19:41:50 15° E 19:43:02 17° ENE 19:45:52 10° NNE visible
20 Mar ? 21:19:06 60° W 21:19:06 60° W 21:23:11 10° NNW visible
21 Mar ? 20:00:58 23° E 20:01:53 24° ENE 20:05:26 10° N visible
21 Mar ? 21:38:14 39° W 21:38:14 39° W 21:42:04 10° NNW visible
22 Mar ? 20:20:05 33° E 20:20:47 36° ENE 20:24:48 10° N visible
22 Mar ? 21:57:21 26° W 21:57:21 26° W 22:00:47 10° NW visible
23 Mar ? 20:39:12 51° E 20:39:43 54° ENE 20:44:01 10° N visible
23 Mar ? 22:16:29 17° W 22:16:29 17° W 22:19:14 10° NW visible
24 Mar ? 19:21:42 10° ENE 19:23:11 12° ENE 19:24:42 10° NE visible
24 Mar ? 20:58:19 73° SE 20:58:42 84° ENE 21:03:07 10° NNW visible
24 Mar ? 22:35:36 11° W 22:35:36 11° W 22:36:52 10° WNW visible
